TimeEDT,TemperatureF,Dew PointF,Humidity,Sea Level PressureIn,VisibilityMPH,Wind Direction,Wind SpeedMPH,Gust SpeedMPH,PrecipitationIn,Events,Conditions,WindDirDegrees,DateUTC
12:54 AM,39.0,33.1,79,29.94,10.0,West,8.1,-,N/A,,Scattered Clouds,260,2013-03-27 04:54:00
1:54 AM,39.9,33.1,77,29.94,10.0,West,8.1,-,N/A,,Scattered Clouds,280,2013-03-27 05:54:00
2:54 AM,39.9,30.0,68,29.93,10.0,NW,10.4,-,N/A,,Clear,310,2013-03-27 06:54:00
3:54 AM,39.9,28.9,65,29.94,10.0,NW,8.1,-,N/A,,Clear,310,2013-03-27 07:54:00
4:54 AM,39.0,28.9,67,29.94,10.0,NW,5.8,-,N/A,,Clear,310,2013-03-27 08:54:00
5:54 AM,39.0,28.0,65,29.95,10.0,NW,3.5,-,N/A,,Partly Cloudy,320,2013-03-27 09:54:00
7:54 AM,41.0,28.0,60,29.98,10.0,WNW,8.1,-,N/A,,Scattered Clouds,290,2013-03-27 11:54:00
8:54 AM,43.0,28.0,56,30.00,10.0,WNW,9.2,-,N/A,,Scattered Clouds,290,2013-03-27 12:54:00
9:54 AM,46.0,25.0,44,29.99,10.0,NW,12.7,23.0,N/A,,Scattered Clouds,320,2013-03-27 13:54:00
10:54 AM,48.0,24.1,39,29.99,10.0,WNW,15.0,-,N/A,,Scattered Clouds,300,2013-03-27 14:54:00
11:54 AM,48.9,24.1,38,29.99,10.0,WNW,15.0,21.9,N/A,,Scattered Clouds,290,2013-03-27 15:54:00
12:54 PM,48.9,21.0,33,29.98,10.0,West,20.7,26.5,N/A,,Scattered Clouds,280,2013-03-27 16:54:00
1:54 PM,51.1,21.0,31,29.96,10.0,WNW,16.1,29.9,N/A,,Scattered Clouds,300,2013-03-27 17:54:00
2:54 PM,51.1,21.9,32,29.95,10.0,WNW,12.7,24.2,0.00,,Mostly Cloudy,290,2013-03-27 18:54:00
3:54 PM,51.1,21.0,31,29.94,10.0,NNW,16.1,21.9,N/A,,Mostly Cloudy,330,2013-03-27 19:54:00
4:54 PM,51.1,24.1,35,29.96,10.0,WNW,23.0,31.1,N/A,,Mostly Cloudy,300,2013-03-27 20:54:00
5:54 PM,51.1,21.9,32,29.96,10.0,WNW,18.4,23.0,N/A,,Mostly Cloudy,290,2013-03-27 21:54:00
6:54 PM,50.0,23.0,35,29.98,10.0,West,16.1,23.0,N/A,,Mostly Cloudy,280,2013-03-27 22:54:00
7:54 PM,48.9,23.0,36,30.00,10.0,WNW,10.4,19.6,N/A,,Mostly Cloudy,300,2013-03-27 23:54:00
8:54 PM,48.0,24.1,39,30.02,10.0,WNW,12.7,-,N/A,,Mostly Cloudy,290,2013-03-28 00:54:00
9:54 PM,45.0,26.1,48,30.04,10.0,WNW,13.8,21.9,N/A,,Partly Cloudy,300,2013-03-28 01:54:00
10:54 PM,44.1,26.1,49,30.04,10.0,WNW,11.5,-,N/A,,Partly Cloudy,290,2013-03-28 02:54:00
11:54 PM,43.0,26.1,51,30.05,10.0,NW,9.2,-,N/A,,Partly Cloudy,310,2013-03-28 03:54:00